When you browse on this site, cookies collect data to enhance your experience and personalize the content and advertising you see.
Visit our Privacy Policy to learn more. By continuing to use the site, you agree to this use of cookies and data.
  • In Hungary
  • List of Countries
  • For 7 days
  • Water Temperature
  • Satellite Maps
  • Weather Map
  • News
  • Weather Widgets
  • user-avatar
    Login

    Hourly Weather Wipperfurth

    Today, 22 February, Friday

    Time Temperature Precipitation Wind Pressure Humidity
    00:00 +8°C° 0 mm 1 mps 745 mmHg 93%
    01:00 +8°C° 0 mm 1 mps 745 mmHg 94%
    02:00 +8°C° 0 mm 1 mps 745 mmHg 95%
    03:00 +8°C° 0 mm 1 mps 746 mmHg 97%
    04:00 +8°C° 0 mm 1 mps 746 mmHg 97%
    05:00 +8°C° 0 mm 1 mps 746 mmHg 97%
    06:00 +8°C° 0 mm 1 mps 747 mmHg 97%
    07:00 +8°C° 0 mm 1 mps 747 mmHg 95%
    08:00 +8°C° 0 mm 1 mps 747 mmHg 93%
    09:00 +9°C° 0 mm 1 mps 748 mmHg 90%
    10:00 +8°C° 0 mm 2 mps 748 mmHg 86%
    11:00 +8°C° 0 mm 2 mps 748 mmHg 83%
    12:00 +9°C° 0 mm 2 mps 749 mmHg 79%
    13:00 +9°C° 0 mm 2 mps 749 mmHg 77%
    14:00 +9°C° 0 mm 2 mps 749 mmHg 74%
    15:00 +10°C° 0 mm 2 mps 749 mmHg 72%
    16:00 +9°C° 0 mm 1 mps 749 mmHg 76%
    17:00 +8°C° 0 mm 1 mps 750 mmHg 81%
    18:00 +7°C° 0 mm 1 mps 750 mmHg 85%
    19:00 +7°C° 0 mm 1 mps 750 mmHg 87%
    20:00 +5°C° 0 mm 2 mps 750 mmHg 89%
    21:00 +5°C° 0 mm 2 mps 750 mmHg 90%
    22:00 +4°C° 0 mm 2 mps 751 mmHg 89%
    23:00 +4°C° 0 mm 2 mps 751 mmHg 88%

    Tomorrow, 23 February, Saturday

    Time Temperature Precipitation Wind Pressure Humidity
    00:00 +3°C° 0 mm 2 mps 751 mmHg 87%
    01:00 +3°C° 0 mm 2 mps 751 mmHg 83%
    02:00 +3°C° 0 mm 2 mps 750 mmHg 79%
    03:00 +1°C° 0 mm 3 mps 750 mmHg 75%
    04:00 +1°C° 0 mm 3 mps 750 mmHg 75%
    05:00 0°C° 0 mm 3 mps 751 mmHg 74%
    06:00 0°C° 0 mm 3 mps 751 mmHg 74%
    07:00 +1°C° 0 mm 3 mps 751 mmHg 66%
    08:00 +2°C° 0 mm 3 mps 751 mmHg 58%
    09:00 +3°C° 0 mm 3 mps 751 mmHg 50%
    10:00 +4°C° 0 mm 3 mps 751 mmHg 47%
    11:00 +7°C° 0 mm 3 mps 751 mmHg 45%
    12:00 +9°C° 0 mm 3 mps 751 mmHg 42%
    13:00 +9°C° 0 mm 3 mps 751 mmHg 42%
    14:00 +9°C° 0 mm 3 mps 750 mmHg 42%
    15:00 +9°C° 0 mm 3 mps 750 mmHg 42%
    16:00 +7°C° 0 mm 3 mps 750 mmHg 46%
    17:00 +6°C° 0 mm 2 mps 750 mmHg 51%
    18:00 +4°C° 0 mm 2 mps 750 mmHg 55%
    19:00 +4°C° 0 mm 2 mps 750 mmHg 53%
    20:00 +3°C° 0 mm 2 mps 750 mmHg 50%
    21:00 +3°C° 0 mm 2 mps 750 mmHg 47%
    22:00 +2°C° 0 mm 2 mps 750 mmHg 47%
    23:00 +2°C° 0 mm 2 mps 750 mmHg 46%

    Day after tomorrow, 24 February, Sunday

    Time Temperature Precipitation Wind Pressure Humidity
    00:00 +2°C° 0 mm 2 mps 750 mmHg 45%
    01:00 +2°C° 0 mm 2 mps 750 mmHg 44%
    02:00 +1°C° 0 mm 2 mps 750 mmHg 44%
    03:00 +1°C° 0 mm 2 mps 750 mmHg 43%
    04:00 +1°C° 0 mm 2 mps 750 mmHg 43%
    05:00 +1°C° 0 mm 2 mps 750 mmHg 43%
    06:00 +1°C° 0 mm 2 mps 750 mmHg 42%
    07:00 +2°C° 0 mm 2 mps 751 mmHg 39%
    08:00 +4°C° 0 mm 2 mps 751 mmHg 37%
    09:00 +6°C° 0 mm 2 mps 751 mmHg 34%
    10:00 +7°C° 0 mm 2 mps 751 mmHg 32%
    11:00 +9°C° 0 mm 2 mps 752 mmHg 31%
    12:00 +12°C° 0 mm 2 mps 752 mmHg 30%
    13:00 +12°C° 0 mm 1 mps 751 mmHg 32%
    14:00 +12°C° 0 mm 1 mps 751 mmHg 34%
    15:00 +13°C° 0 mm 1 mps 751 mmHg 36%
    16:00 +11°C° 0 mm 1 mps 751 mmHg 41%
    17:00 +9°C° 0 mm 1 mps 751 mmHg 46%
    18:00 +7°C° 0 mm 1 mps 751 mmHg 51%
    19:00 +7°C° 0 mm 1 mps 751 mmHg 52%
    20:00 +6°C° 0 mm 1 mps 752 mmHg 52%
    21:00 +6°C° 0 mm 1 mps 752 mmHg 53%
    22:00 +6°C° 0 mm 1 mps 752 mmHg 53%
    23:00 +5°C° 0 mm 1 mps 752 mmHg 53%

    25 February, Monday

    Time Temperature Precipitation Wind Pressure Humidity
    00:00 +5°C° 0 mm 1 mps 752 mmHg 54%
    01:00 +5°C° 0 mm 1 mps 752 mmHg 54%
    02:00 +5°C° 0 mm 1 mps 752 mmHg 54%
    03:00 +5°C° 0 mm 1 mps 752 mmHg 54%
    04:00 +5°C° 0 mm 1 mps 752 mmHg 55%
    05:00 +5°C° 0 mm 1 mps 752 mmHg 55%
    06:00 +5°C° 0 mm 1 mps 752 mmHg 56%
    07:00 +6°C° 0 mm 1 mps 752 mmHg 55%
    08:00 +8°C° 0 mm 1 mps 752 mmHg 54%
    09:00 +9°C° 0 mm 1 mps 753 mmHg 52%
    10:00 +11°C° 0 mm 1 mps 752 mmHg 50%
    11:00 +13°C° 0 mm 1 mps 752 mmHg 47%
    12:00 +15°C° 0 mm 1 mps 752 mmHg 45%
    13:00 +15°C° 0 mm 1 mps 752 mmHg 46%
    14:00 +15°C° 0 mm 1 mps 752 mmHg 47%
    15:00 +15°C° 0 mm 1 mps 751 mmHg 49%
    16:00 +14°C° 0 mm 1 mps 751 mmHg 56%
    17:00 +12°C° 0 mm 1 mps 751 mmHg 62%
    18:00 +10°C° 0 mm 1 mps 751 mmHg 69%
    19:00 +9°C° 0 mm 1 mps 751 mmHg 71%
    20:00 +9°C° 0 mm 1 mps 751 mmHg 72%
    21:00 +8°C° 0 mm 1 mps 751 mmHg 74%
    22:00 +8°C° 0 mm 1 mps 751 mmHg 74%
    23:00 +8°C° 0 mm 1 mps 751 mmHg 74%

    26 February, Tuesday

    Time Temperature Precipitation Wind Pressure Humidity
    00:00 +7°C° 0 mm 1 mps 751 mmHg 73%
    01:00 +7°C° 0 mm 1 mps 750 mmHg 74%
    02:00 +7°C° 0 mm 1 mps 750 mmHg 74%
    03:00 +7°C° 0 mm 1 mps 749 mmHg 75%
    04:00 +7°C° 0 mm 1 mps 749 mmHg 75%
    05:00 +6°C° 0 mm 1 mps 749 mmHg 75%
    06:00 +6°C° 0 mm 1 mps 749 mmHg 75%
    07:00 +8°C° 0 mm 1 mps 749 mmHg 70%
    08:00 +9°C° 0 mm 0 mps 750 mmHg 64%
    09:00 +11°C° 0 mm 0 mps 750 mmHg 59%
    10:00 +12°C° 0 mm 0 mps 750 mmHg 54%
    11:00 +14°C° 0 mm 0 mps 750 mmHg 50%
    12:00 +16°C° 0 mm 0 mps 750 mmHg 45%
    13:00 +16°C° 0 mm 0 mps 749 mmHg 46%
    14:00 +16°C° 0 mm 0 mps 749 mmHg 46%
    15:00 +16°C° 0 mm 0 mps 748 mmHg 47%
    16:00 +14°C° 0 mm 0 mps 748 mmHg 53%
    17:00 +12°C° 0 mm 0 mps 748 mmHg 60%
    18:00 +11°C° 0 mm 1 mps 748 mmHg 67%
    19:00 +10°C° 0 mm 1 mps 748 mmHg 70%
    20:00 +10°C° 0 mm 1 mps 748 mmHg 72%
    21:00 +9°C° 0 mm 1 mps 748 mmHg 74%
    22:00 +9°C° 0 mm 1 mps 747 mmHg 75%
    23:00 +8°C° 0 mm 1 mps 747 mmHg 76%

    27 February, Wednesday

    Time Temperature Precipitation Wind Pressure Humidity
    00:00 +8°C° 0 mm 1 mps 747 mmHg 78%
    01:00 +8°C° 0 mm 1 mps 747 mmHg 78%
    02:00 +8°C° 0 mm 1 mps 747 mmHg 79%
    03:00 +7°C° 0 mm 1 mps 746 mmHg 79%
    04:00 +7°C° 0 mm 1 mps 746 mmHg 79%
    05:00 +7°C° 0 mm 1 mps 746 mmHg 79%
    06:00 +6°C° 0 mm 1 mps 745 mmHg 79%
    07:00 +8°C° 0 mm 1 mps 745 mmHg 73%
    08:00 +10°C° 0 mm 1 mps 745 mmHg 68%
    09:00 +11°C° 0 mm 1 mps 745 mmHg 62%
    10:00 +13°C° 0 mm 1 mps 745 mmHg 57%
    11:00 +14°C° 0 mm 1 mps 745 mmHg 53%
    12:00 +15°C° 0 mm 2 mps 744 mmHg 48%
    13:00 +16°C° 0 mm 1 mps 744 mmHg 48%
    14:00 +16°C° 0 mm 1 mps 743 mmHg 48%
    15:00 +16°C° 0 mm 1 mps 743 mmHg 48%
    16:00 +14°C° 0 mm 1 mps 742 mmHg 53%
    17:00 +12°C° 0 mm 1 mps 742 mmHg 58%
    18:00 +10°C° 0 mm 1 mps 742 mmHg 64%
    19:00 +9°C° 0 mm 1 mps 741 mmHg 66%
    20:00 +9°C° 0 mm 1 mps 741 mmHg 69%
    21:00 +8°C° 0 mm 1 mps 741 mmHg 72%
    22:00 +8°C° 0 mm 1 mps 741 mmHg 77%
    23:00 +7°C° 0 mm 1 mps 741 mmHg 82%
    Show more